Lapse_Rate
7.0 6.5 6.5 6.5 6.5 6.5 6.5 6.5 6.5 6.5 6.5 6.5 6.5 6.5 6.5 6.8 6.9 6.9 7.2 7.4 7.6 7.8 8.4 8.8 9.0 8.3 8.6 8.9 6.5 5.9 6.4 6.9 7.0 6.9 6.9 6.2 7.1 6.2 6.3 8.0 7.7 7.3 5.6 4.5
6.5 6.5 6.5 6.5 6.5 6.5 6.5 6.5 6.5 6.5 6.5 6.5 6.5 6.5 6.5 6.5 6.7 7.1 7.2 7.3 7.5 7.8 8.1 8.5 8.8 9.1 8.8 9.0 8.9 6.7 5.8 5.9 4.1 4.7 8.2 7.5 6.5 6.8 6.1 8.0 8.0 7.4 6.5 5.2
6.5 6.5 6.5 6.5 6.5 6.5 6.5 6.5 6.5 6.5 6.5 6.5 6.5 6.5 6.5 6.5 7.0 7.3 7.5 7.7 7.8 7.8 7.9 8.3 8.5 8.8 8.9 8.7 8.4 8.5 6.1 4.8 3.5 3.5 5.8 5.3 5.1 6.0 6.6 7.0 7.8 7.4 7.6 5.4
6.5 6.6 6.5 6.5 6.5 6.5 6.5 6.5 6.5 6.5 6.5 6.5 6.5 6.5 6.5 6.5 6.5 6.5 7.1 7.4 7.6 7.9 8.1 8.4 8.7 8.6 8.5 8.4 7.8 7.3 6.7 5.3 5.9 4.6 7.4 6.7 6.0 5.6 7.5 6.2 7.9 8.0 7.4 6.8
6.5 6.5 6.5 6.5 6.5 6.5 6.5 6.5 6.5 6.5 6.5 6.5 6.5 6.5 6.5 6.5 6.5 6.5 6.8 7.3 7.6 7.9 8.2 8.4 8.5 8.7 8.6 8.4 6.9 6.6 6.7 7.3 6.5 6.2 6.7 6.0 5.8 4.7 6.2 7.2 7.2 7.9 6.9 6.6
6.5 7.0 6.5 6.5 6.5 6.5 6.5 6.5 6.5 6.5 6.5 6.5 6.5 6.5 6.5 6.5 6.5 6.5 6.9 7.4 7.6 7.8 8.2 8.4 8.6 8.3 8.4 7.1 5.7 5.3 5.9 7.5 6.3 5.0 5.9 5.3 4.9 4.6 5.5 3.8 5.8 7.1 6.2 7.0
6.5 6.5 6.5 6.7 6.5 6.5 6.5 6.5 6.5 6.5 6.5 6.5 6.5 6.5 6.5 6.5 6.5 6.6 6.7 7.1 7.5 7.9 7.8 8.1 8.0 7.9 8.1 6.9 5.3 5.1 4.9 7.2 6.2 4.9 5.8 4.8 3.8 3.8 3.2 3.5 1.8 3.4 2.5 3.6
6.5 6.5 6.5 6.5 6.5 6.5 6.5 6.5 6.5 6.5 6.5 6.5 6.5 6.5 6.5 6.5 7.0 7.2 7.2 7.4 7.7 7.7 7.9 7.6 8.2 8.0 7.5 6.4 5.6 4.6 4.5 6.5 6.6 5.3 5.7 3.8 2.6 1.9 1.1 1.4 1.0 1.5 4.5 3.9
6.5 6.5 6.5 6.5 6.5 6.5 6.5 6.5 6.5 6.5 6.5 6.5 6.5 6.5 6.5 6.5 6.5 6.6 6.9 7.4 7.2 7.5 7.7 7.4 7.9 7.5 6.7 6.5 5.4 4.9 5.0 3.8 6.7 6.4 6.0 5.2 2.1 0.4 0.3 0.9 1.8 2.0 -0.9 2.1
6.5 6.5 6.5 6.5 6.6 6.6 6.5 6.5 6.5 6.5 6.5 6.5 6.5 6.5 6.5 6.5 6.5 6.5 6.6 6.9 7.3 7.4 7.5 7.4 7.4 6.8 6.6 5.8 5.5 4.7 4.7 3.5 6.1 6.2 6.3 5.9 1.7 1.0 0.4 -0.6 -0.9 -0.1 -0.2 -0.4
6.5 6.5 6.5 6.5 6.5 6.5 6.5 6.5 6.5 6.5 6.5 6.5 6.5 6.5 6.5 6.5 6.5 6.5 6.7 7.1 7.2 7.0 7.2 7.1 7.0 6.7 6.0 5.6 5.3 5.3 4.5 4.3 4.2 6.9 7.0 6.0 2.4 0.8 0.9 0.4 -0.5 0.3 -1.4 -2.2
6.5 6.5 6.5 6.5 6.5 6.5 6.5 6.5 6.5 6.5 6.5 6.5 6.5 6.5 6.5 6.5 6.6 6.8 6.9 7.2 7.5 7.5 7.1 7.0 6.6 6.7 6.3 6.2 5.7 5.7 5.0 5.6 4.0 7.0 7.2 5.7 3.7 3.0 1.3 2.3 -0.5 0.2 -0.8 -0.7
6.5 6.5 6.5 6.5 6.5 6.5 6.5 6.5 6.5 6.5 6.5 6.5 6.5 6.5 6.5 6.7 6.7 7.0 7.0 7.3 7.5 7.7 7.5 7.1 6.6 6.4 6.7 6.3 6.3 5.9 5.5 5.1 5.5 6.7 6.6 6.2 5.2 4.3 3.1 2.9 2.1 1.5 0.9 0.9
6.6 6.5 6.5 6.5 6.5 6.5 6.5 6.5 6.5 6.5 6.5 6.5 6.5 6.5 6.5 6.5 6.5 6.8 7.1 7.4 7.5 7.3 7.1 7.3 6.8 6.7 6.6 6.4 6.4 6.2 5.6 5.2 5.4 6.0 6.3 6.2 6.2 6.1 5.0 3.4 2.5 1.7 1.4 0.9
6.5 6.5 6.5 6.5 6.5 6.5 6.5 6.5 6.5 6.5 6.5 6.5 6.5 6.5 6.5 6.5 6.5 6.9 7.3 7.4 7.5 7.7 7.8 8.0 8.0 7.6 7.0 5.9 6.2 6.6 6.3 6.1 5.0 5.6 5.7 6.1 5.9 6.7 6.8 4.5 4.4 3.6 1.7 2.2
6.5 6.5 6.5 6.5 6.5 6.5 6.5 6.5 6.5 6.5 6.5 6.5 6.5 6.5 6.5 6.9 7.2 7.0 7.2 7.3 7.4 7.6 7.9 8.0 8.1 8.1 7.9 8.0 7.1 6.7 6.6 5.9 5.7 5.1 5.5 5.7 6.8 6.3 6.5 5.6 4.7 4.1 2.6 1.2
6.5 6.5 6.5 6.5 6.5 6.5 6.5 6.5 6.5 6.5 6.5 6.5 6.5 6.5 6.6 6.5 6.7 7.0 7.2 7.4 7.5 7.7 7.9 7.7 7.3 7.7 8.3 8.6 8.3 7.7 7.1 7.0 5.5 5.2 5.1 5.7 6.8 5.1 4.5 5.0 4.8 3.5 3.3 3.1
6.5 6.5 6.5 6.5 6.5 6.5 6.5 6.5 6.5 6.5 6.5 6.5 6.5 6.5 6.7 6.9 7.2 7.5 7.8 7.6 7.6 7.9 8.0 7.8 6.5 6.9 8.4 8.8 8.9 8.3 7.4 7.0 5.9 4.7 4.4 4.5 4.2 3.4 4.1 3.7 3.5 3.5 2.7 3.4
6.5 6.5 6.5 6.5 6.5 6.5 6.5 6.5 6.5 6.5 6.5 6.5 6.5 6.5 7.0 7.3 7.4 7.3 8.0 8.1 7.5 8.1 8.3 8.3 7.0 6.4 8.4 8.6 9.0 8.5 7.3 6.6 6.0 5.5 4.9 4.8 4.1 3.5 3.3 2.9 3.1 4.1 4.1 4.2
6.5 6.5 6.5 6.5 6.5 6.5 6.5 6.5 7.0 6.6 6.5 6.7 6.8 6.7 6.8 7.1 6.5 6.5 7.9 8.0 7.1 8.5 8.7 8.7 8.8 9.0 7.9 8.2 8.8 8.9 8.0 7.5 7.7 6.9 6.8 7.0 5.2 4.2 3.3 3.3 3.2 4.0 3.9 3.7
6.5 6.5 6.5 6.5 6.5 6.5 6.5 6.7 7.1 6.5 6.5 6.9 7.1 7.1 7.1 6.5 6.8 7.1 7.4 6.4 6.3 7.4 8.7 9.0 9.0 8.9 9.0 9.2 8.9 8.4 8.5 7.5 8.1 8.8 7.6 7.7 7.8 6.0 5.1 4.6 4.1 3.7 4.0 3.4
6.5 6.5 6.5 6.5 6.5 6.5 6.9 6.7 6.5 6.6 7.2 7.3 7.3 7.4 7.2 7.3 7.7 7.9 6.3 5.5 7.4 8.5 8.7 9.0 8.8 8.9 9.2 9.3 9.2 8.8 8.2 9.1 9.0 7.9 8.7 7.5 7.9 8.3 6.5 3.5 2.9 2.5 2.3 2.2
6.5 6.5 6.5 6.5 6.5 6.7 7.2 6.9 7.5 7.7 7.3 7.4 7.4 7.8 7.7 7.6 7.7 7.5 7.1 8.3 8.5 8.6 8.7 9.0 8.9 8.9 9.1 9.1 9.1 8.9 9.0 9.4 9.4 8.9 7.7 8.6 7.9 8.5 7.7 6.9 4.7 3.6 3.3 3.3
6.5 6.8 6.5 6.5 6.5 6.6 7.1 7.6 7.8 7.9 7.6 7.9 8.1 8.0 8.1 7.8 8.0 8.0 8.2 8.3 8.5 8.7 8.7 8.9 8.9 8.8 8.8 9.1 8.9 8.8 8.8 9.3 9.4 9.1 8.7 8.9 8.6 8.7 8.7 8.1 8.1 5.9 5.2 5.1
6.6 6.6 6.5 6.5 6.6 7.0 7.3 7.6 7.8 7.9 8.1 8.1 8.2 8.2 8.1 8.1 8.1 8.2 8.2 8.3 8.5 8.7 8.9 9.0 8.8 8.8 8.8 8.5 7.5 7.4 8.1 8.1 9.1 8.2 8.8 7.4 8.7 8.7 8.7 7.6 7.1 7.4 5.8 6.4
6.8 6.5 6.5 6.5 6.8 6.8 7.0 7.7 8.1 7.9 8.0 8.1 8.0 8.0 8.4 8.4 8.2 8.4 8.3 8.6 8.6 8.6 8.9 8.8 8.8 8.9 8.8 7.4 5.4 5.1 5.7 6.0 6.0 7.8 7.0 8.5 8.6 8.6 8.8 8.7 8.5 7.7 7.4 7.4
Wind_Speed
16 8 11 15 4 8 8 11 14 13 11 12 13 14 15 13 11 16 15 16 17 18 20 20 21 22 22 19 22 24 21 21 16 13 11 10 13 11 13 12 13 14 13 16
11 14 15 3 2 6 9 11 13 13 10 12 15 14 15 15 14 16 16 16 18 20 21 21 20 20 21 21 19 22 22 20 18 13 13 11 10 14 13 13 13 16 16 15
15 9 5 4 7 10 12 12 11 12 13 15 18 17 5 18 18 15 16 16 16 18 21 21 21 20 20 20 20 18 21 21 19 20 14 12 13 12 15 16 13 11 14 18
15 16 9 9 10 9 11 3 5 11 9 9 13 8 11 11 13 16 17 17 18 19 19 20 19 20 19 18 19 19 18 20 18 20 16 15 12 13 16 15 12 13 15 15
9 12 8 12 13 4 8 5 8 12 12 14 17 10 7 7 11 15 15 17 17 18 18 19 18 18 19 18 18 18 19 17 16 17 17 9 13 13 14 15 18 17 17 16
18 4 6 11 7 6 7 10 15 15 12 11 18 9 6 4 7 11 14 15 17 19 17 18 17 17 17 17 16 17 20 16 14 15 16 11 10 12 12 4 11 15 11 10
18 20 15 9 9 11 9 10 5 5 7 10 6 7 5 7 8 11 12 14 15 17 15 16 18 18 18 19 18 17 20 18 14 16 12 11 8 11 11 1 6 13 7 5
12 13 19 13 17 8 16 9 5 5 7 11 19 6 6 12 11 11 10 12 13 16 14 16 18 18 18 19 19 20 21 19 16 14 13 10 12 9 9 16 11 10 8 5
7 12 13 14 10 7 7 8 7 8 13 10 4 6 9 10 12 8 12 14 14 15 15 16 18 19 18 18 20 21 20 18 15 13 11 9 12 16 13 14 10 5 15 11
5 4 4 12 9 11 11 2 3 5 4 7 5 6 4 8 10 10 11 11 14 12 14 15 16 17 18 18 19 20 18 16 15 13 9 8 15 16 15 15 17 15 12 12
4 2 4 11 8 14 9 9 8 8 9 5 6 3 3 5 6 8 9 9 11 11 12 13 14 15 16 17 18 19 19 16 15 11 10 12 17 19 18 15 16 11 16 18
4 3 4 11 8 8 8 9 10 5 7 7 5 2 6 4 6 8 9 10 11 11 10 12 13 14 16 17 17 18 18 18 14 11 15 17 19 18 19 18 21 16 19 15
6 4 3 6 6 6 5 5 5 5 3 9 5 3 5 4 5 8 9 10 10 13 13 12 13 14 15 16 15 13 16 19 19 18 16 19 20 20 20 17 17 17 16 17
3 5 10 3 3 2 2 4 8 11 6 5 1 7 5 4 5 7 8 9 10 10 14 14 14 14 14 14 14 13 15 15 16 17 20 20 20 18 17 18 19 17 17 17
3 5 1 4 3 6 3 2 5 5 5 5 8 7 6 4 4 6 7 8 11 14 15 16 15 14 15 16 16 15 17 17 16 16 17 18 17 16 16 19 17 16 17 15
6 3 3 3 5 2 3 5 7 1 4 7 11 7 7 6 5 7 7 9 11 12 13 15 15 15 14 14 14 16 15 17 17 18 19 17 18 16 17 17 16 16 17 19
6 6 6 5 9 9 7 6 2 4 4 7 8 8 11 8 7 6 6 8 10 10 11 11 11 10 11 11 12 13 15 14 16 16 17 18 15 18 18 16 18 17 17 15
9 11 7 2 8 6 2 7 6 7 5 10 15 13 10 10 8 8 7 7 7 9 9 7 4 7 9 11 10 11 12 13 15 16 17 17 17 19 17 16 18 18 17 17
8 5 3 3 9 4 4 10 9 9 6 10 12 13 13 12 11 8 7 6 3 5 6 6 4 1 8 10 11 11 13 14 14 17 16 16 17 17 17 18 18 16 14 14
7 8 4 6 5 3 6 12 10 5 6 11 13 13 13 12 5 4 6 5 2 5 6 7 9 9 7 9 11 12 11 12 13 9 13 12 12 15 16 16 16 13 13 13
9 8 10 7 6 4 5 9 3 5 3 13 13 13 13 9 4 11 8 5 3 4 6 8 9 9 11 10 10 12 10 10 11 11 9 11 10 10 12 12 12 12 11 11
9 6 6 6 7 4 9 6 4 4 9 8 10 9 10 15 13 12 8 6 5 6 7 9 9 9 10 11 10 12 13 12 11 12 11 12 9 9 8 12 12 14 13 13
1 3 2 4 2 2 5 2 8 8 9 8 11 12 15 15 13 11 8 8 7 7 7 8 8 9 10 11 12 12 12 12 11 11 12 10 11 9 10 10 10 9 11 10
4 2 4 6 4 6 5 5 6 9 10 11 12 13 14 14 13 11 9 8 7 7 7 7 8 9 9 10 11 11 12 12 11 11 11 10 9 10 8 7 7 7 7 7
3 7 8 4 7 7 7 8 9 10 11 11 12 11 12 13 12 11 9 8 8 8 7 7 7 7 9 9 10 11 11 12 11 10 10 10 9 10 9 6 6 6 4 6
6 6 4 2 13 6 13 12 13 12 11 10 11 11 11 10 11 10 9 8 7 7 7 7 7 7 8 9 10 11 11 11 11 9 8 7 6 7 7 7 6 7 7 7
Wind_Direction
211 242 242 246 16 339 309 294 282 280 290 302 292 293 294 292 72 50 31 19 2 353 349 346 343 336 334 335 329 328 326 328 330 325 316 312 237 221 235 209 209 190 188 191
238 248 251 50 301 295 274 266 269 272 290 305 293 301 276 98 76 55 32 9 2 351 341 337 338 337 333 330 329 323 320 322 315 315 318 309 301 233 218 221 213 196 177 185
232 278 116 238 266 256 247 252 280 301 312 285 267 263 285 94 75 46 30 12 8 352 339 338 336 333 328 327 329 323 317 314 311 309 305 314 302 288 222 220 208 198 189 181
256 253 213 238 249 245 262 39 310 287 287 281 327 290 293 125 63 28 16 9 6 353 345 338 337 333 332 328 325 324 317 308 309 305 302 301 297 282 241 214 200 203 198 180
246 220 211 235 244 183 252 352 287 280 274 282 273 254 115 65 29 6 4 10 3 355 349 342 342 340 335 334 329 322 317 305 310 314 304 299 290 273 259 218 199 199 196 197
243 270 270 252 229 216 292 282 266 243 246 255 266 231 111 29 4 356 8 4 5 360 350 350 347 343 340 335 332 332 324 316 319 318 301 294 314 305 268 312 249 187 176 183
237 240 225 227 240 212 230 265 290 222 216 239 254 289 58 88 35 25 12 358 7 360 354 353 351 351 346 343 341 338 333 325 330 325 317 313 13 29 21 345 26 34 40 60
233 221 209 187 226 257 207 255 270 306 289 311 320 355 123 112 61 23 23 6 1 1 358 356 355 353 345 345 347 344 338 329 331 338 324 330 43 51 52 50 41 37 16 298
321 242 171 161 204 220 222 230 266 291 287 267 202 99 159 76 37 29 9 4 3 1 1 359 356 357 348 348 354 347 336 330 335 334 341 345 47 57 50 58 57 360 76 9
327 285 182 176 213 238 247 238 263 234 268 262 290 144 110 8 1 6 11 4 3 1 4 359 358 356 351 355 358 348 339 342 341 360 353 11 54 57 56 50 47 34 36 59
265 255 241 226 201 246 191 228 231 262 256 273 290 87 32 33 18 17 13 11 0 6 5 3 359 358 355 359 0 350 351 344 344 4 27 31 51 56 56 58 55 42 55 32
207 80 263 225 254 279 211 234 247 232 259 278 292 113 85 101 49 23 20 10 7 15 13 9 360 358 4 5 357 355 353 352 349 1 35 47 50 57 60 47 54 35 50 47
159 170 228 218 216 196 226 200 254 223 201 254 269 114 115 87 70 51 30 14 15 14 17 16 7 5 6 4 1 0 356 355 358 12 28 38 42 46 51 54 59 52 53 49
304 256 253 332 17 133 211 330 317 276 252 276 355 138 145 97 47 37 32 21 25 28 21 15 11 8 5 5 4 7 8 3 7 8 26 36 36 38 41 48 46 43 50 45
215 270 329 304 103 77 48 329 319 276 301 250 142 135 149 95 72 55 39 35 28 25 25 20 14 7 5 6 8 11 14 14 18 23 33 34 33 34 43 47 46 46 51 47
194 231 141 272 245 189 199 227 241 172 120 112 124 124 129 129 106 69 50 40 37 25 26 24 16 9 7 14 8 10 17 18 19 23 29 35 36 38 41 45 45 48 46 40
194 211 187 250 191 226 234 200 189 167 60 181 189 130 152 134 96 67 53 52 39 33 24 36 21 2 7 19 22 19 15 17 24 31 35 34 31 39 40 40 45 43 45 45
210 206 211 304 166 228 93 181 181 142 121 107 113 141 131 118 112 92 69 63 41 28 31 46 40 6 18 10 34 29 24 26 28 32 35 32 31 34 32 32 36 36 36 34
228 220 255 230 217 104 191 198 172 178 171 153 140 136 130 135 125 93 92 86 25 16 42 32 113 15 17 23 19 32 29 26 32 30 29 31 29 30 28 32 29 34 34 32
226 249 254 289 264 254 83 167 200 204 209 182 160 156 154 160 196 123 121 108 10 23 58 46 46 31 27 31 25 23 33 35 30 42 30 34 44 37 32 30 27 24 31 32
206 212 226 246 267 94 130 122 144 210 118 160 164 165 166 174 74 122 135 131 252 244 55 66 55 45 31 24 36 24 28 43 39 24 43 26 46 51 46 39 32 25 26 29
185 207 201 233 240 177 124 148 236 95 121 150 146 167 144 120 130 131 148 164 180 90 70 64 59 49 39 26 28 29 19 25 38 29 29 31 21 44 44 44 35 26 21 24
17 22 79 13 65 99 29 90 139 136 128 122 113 121 129 131 131 140 175 142 115 97 80 70 63 57 45 38 30 28 15 15 27 39 21 34 20 31 46 34 47 32 24 23
140 141 88 173 130 144 108 106 123 128 119 118 124 132 135 135 148 151 141 137 112 90 80 73 65 60 54 41 36 28 19 9 28 23 38 17 24 21 37 40 41 54 35 29
31 140 121 97 147 149 174 132 126 117 115 121 129 141 137 140 147 146 131 120 109 105 87 76 74 65 58 48 37 27 21 18 16 31 21 15 23 19 14 61 34 56 73 60
189 148 177 223 175 181 166 153 143 134 138 136 131 131 144 144 140 138 127 124 115 102 92 85 69 62 59 50 40 27 17 22 15 26 9 16 15 18 11 12 17 101 112 89